Delta Virtual Airport Information Service

Singapore Changi Airport

ICAO: WSSS Country: Singapore
Latitude: 1.35019 Longitude: 103.994
Latest Arrival : SIA981 (VTBS-WSSS) Latest Departure : SIA970 (WSSS-VTBS)


WX CaptureLIVE
Data provided by noaa.gov | Fetched at 15:50:47

METAR : WSSS 162030Z 33002KT 9000 FEW018 BKN300 26/25 Q1010 NOSIG

TAF : WSSS 161700Z 1618/1800 22005KT 9999 FEW015 SCT020 TEMPO 1702/1705 3000 TSRA FEW012CB BKN015


Runway Data for WSSS
Data provided by openaviationdata.com

Runway ID Mag Var Hdg Length Elevation Surface ILS Freq ILS Id ILS Slope
02L 0 22° 13152 ft 22 ft Bituminous 110.9 ICW 3
02C 0 22° 13179 ft 22 ft Bituminous 108.3 ICE 3
20R 0 202° 13152 ft 22 ft Bituminous 108.9 ICH 3
20C 0 202° 13179 ft 22 ft Bituminous 109.7 ICC 3

Singapore Changi Airport, Singapore
Use only for reference purposes



Not for navigational purposes.